Weather History for Fort Indiantown Gap, PA

Change the Weather History Date:

Saturday, October 26, 2013

  Actual Average Record
Temperature  
Mean Temperature 40 °F -  
Max Temperature 54 °F 58 °F 70 °F (2010)
Min Temperature 26 °F 41 °F 26 °F (2013)
Degree Days  
Heating Degree Days 26    
Moisture  
Dew Point 28 °F    
Average Humidity 62    
Maximum Humidity 99    
Minimum Humidity 33    
Precipitation  
Precipitation 0.00 in - - ()
Sea Level Pressure  
Sea Level Pressure 30.10 in    
Wind  
Wind Speed 6 mph (SW)    
Max Wind Speed 20 mph    
Max Gust Speed 25 mph    
Visibility 10 miles    
Events      
Averages and records for this station are not official NWS values.
T = Trace of Precipitation, MM = Missing Value Source: NWS Daily Summary

Daily Weather History Graph

Daily Weather History Graph

Search for Another Location

Airport:

Trip Planner

Search our weather history database for the weather conditions in past years. The results will help you decide how hot, cold, wet, or windy it might be!

Date:

Astronomy

Oct. 26, 2013 Rise Set
Actual Time 7:29 AM EDT 6:10 PM EDT
Civil Twilight 7:01 AM EDT 6:38 PM EDT
Nautical Twilight 6:29 AM EDT 7:10 PM EDT
Astronomical Twilight 5:57 AM EDT 7:41 PM EDT
Moon No Moon Rise 1:44 PM EDT (10/26)
Length of Visible Light 11h 36m
Length of Day
10h 40m
Waning Gibbous, 53% of the Moon is Illuminated
Oct 26
Waning Gibbous
Oct 26
Last Quarter
Nov 3
New
Nov 10
First Quarter
Nov 17
Full

Hourly Weather History & Observations

Time (EDT) Temp. Windchill Dew Point Humidity Pressure Visibility Wind Dir Wind Speed Gust Speed Precip Events Conditions
12:58 AM 36.7 °F 32.0 °F 29.1 °F 74% 30.27 in 10.0 mi SW 5.8 mph - N/A   Clear
1:58 AM 35.4 °F 32.6 °F 28.4 °F 76% 30.27 in 10.0 mi West 3.5 mph - N/A   Clear
2:58 AM 31.3 °F 24.7 °F 28.6 °F 90% 30.27 in 10.0 mi WSW 6.9 mph - N/A   Clear
3:58 AM 28.6 °F - 27.3 °F 95% 30.25 in 10.0 mi NNE 1.2 mph - N/A   Clear
4:58 AM 27.9 °F - 27.1 °F 97% 30.24 in 10.0 mi Calm Calm - N/A   Clear
5:58 AM 27.9 °F - 27.5 °F 99% 30.23 in 10.0 mi Calm Calm - N/A   Clear
6:58 AM 26.6 °F - 26.2 °F 99% 30.22 in 10.0 mi Calm Calm - N/A   Clear
7:58 AM 27.1 °F - 26.6 °F 98% 30.24 in 10.0 mi Calm Calm - N/A   Clear
8:58 AM 32.4 °F - 31.6 °F 97% 30.22 in 10.0 mi Calm Calm - N/A   Clear
9:58 AM 38.5 °F 33.4 °F 31.3 °F 75% 30.20 in 10.0 mi SW 6.9 mph - N/A   Clear
10:58 AM 44.1 °F 38.1 °F 30.2 °F 58% 30.17 in 10.0 mi SW 11.5 mph - N/A   Clear
11:58 AM 47.7 °F - 28.9 °F 48% 30.13 in 10.0 mi SSW 12.7 mph - N/A   Partly Cloudy
12:58 PM 50.9 °F - 26.4 °F 39% 30.08 in 10.0 mi SSW 16.1 mph 24.2 mph N/A   Clear
1:58 PM 52.2 °F - 24.8 °F 35% 30.05 in 10.0 mi SSW 13.8 mph 25.3 mph N/A   Clear
2:58 PM 53.4 °F - 25.7 °F 34% 30.02 in 10.0 mi SSW 17.3 mph 23.0 mph N/A   Clear
3:21 PM 53.6 °F - 24.8 °F 33% 29.99 in 10.0 mi WSW 19.6 mph 25.3 mph N/A   Clear
3:58 PM 53.6 °F - 25.3 °F 34% 30.00 in 10.0 mi SSW 13.8 mph 20.7 mph N/A   Clear
4:58 PM 52.9 °F - 25.9 °F 35% 29.96 in 10.0 mi SSW 13.8 mph 20.7 mph N/A   Clear
5:58 PM 50.0 °F - 26.2 °F 40% 29.96 in 10.0 mi SSW 9.2 mph - N/A   Scattered Clouds
6:58 PM 49.1 °F - 27.9 °F 44% 29.96 in 10.0 mi SW 4.6 mph - N/A   Overcast
7:58 PM 49.3 °F - 28.4 °F 45% 29.95 in 10.0 mi SW 2.3 mph - N/A   Overcast
8:58 PM 49.1 °F - 28.6 °F 45% 29.94 in 10.0 mi WSW 5.8 mph - N/A   Overcast
9:58 PM 48.7 °F - 28.8 °F 46% 29.94 in 10.0 mi SSW 4.6 mph - N/A   Overcast
10:58 PM 46.4 °F - 32.0 °F 57% 29.93 in 10.0 mi Calm Calm - N/A   Overcast
11:58 PM 44.6 °F - 34.3 °F 67% 29.93 in 10.0 mi Variable 2.3 mph - N/A   Overcast